{"data":{"norad_id":64376,"intl_designator":"2025-127G","name":"STARLINK-11745 [DTC]","alt_names":[],"object_type":"PAYLOAD","status":"ACTIVE","operator":null,"country":"US","launch_date":"2025-06-13","launch_site_code":"AFETR","launch_vehicle":null,"mission":null,"orbit_class":"UNKNOWN","rcs_meters":null,"size_class":null,"mass_kg":null,"dimensions":null,"purposes":["comms"],"wikipedia_slug":null,"has_3d_model":false,"image_url":null,"decayed_at":null,"tle_current":{"epoch":"2026-09-20T12:22:34.329504Z","epoch_age_seconds":132910,"freshness":"FRESH","line1":"1 64376U 25127G   26263.51567511  .00117987  00000+0  90988-3 0  9992","line2":"2 64376  42.9999 350.1695 0000760 244.5038 115.5751 15.70843518 74141","mean_motion":15.70843518,"eccentricity":7.6e-5,"inclination_deg":42.9999,"raan_deg":350.1695,"arg_perigee_deg":244.5038,"mean_anomaly_deg":115.5751,"bstar":0.00090988,"rev_number":7414,"period_min":91.670493177666,"perigee_km":355.97317521243,"apogee_km":356.99683775742,"semimajor_km":6734.6220064849,"source":"CELESTRAK","updated_at":"2026-09-21T09:00:35.322840Z"}}}